Location: Chagrin Falls Park
(41.4139°N, 81.3865°W)
Time: 22:54:16
(UTC+00:00)

STARLINK-2720 - Pass Details

Date: 31 July 2021
Orbit: 546 x 548 km, 53.1° (Epoch: 20 September)

Event Time Altitude Azimuth Distance (km) Brightness Sun altitude
Rises 01:37:56 0° 308° (NW) 2,722 9.6 -9.5°
Reaches altitude 10° 01:40:11 10° 308° (NW) 1,825 7.9 -9.8°
Maximum altitude 01:44:20 88° 41° (NE) 553 3.6 -10.5°
Enters shadow 01:47:36 16° 128° (SE) 1,474 5.1 -11.0°
